QPF
0.00 0.00 0.00 0.00 0.00 0.00 0.00 0.00 0.00 0.00 0.00 0.00 0.00 0.00 0.00 0.00 0.00 0.00 0.00 0.00 0.00 0.00 0.00 0.00 0.00 0.00 0.00 0.00 0.00 0.00 0.00 0.00 0.00 0.00 0.00 0.01 0.01 0.02 0.03 0.03 0.03 0.03 0.05 0.07
0.00 0.00 0.00 0.00 0.00 0.00 0.00 0.00 0.00 0.00 0.00 0.00 0.00 0.00 0.00 0.00 0.00 0.00 0.00 0.00 0.00 0.00 0.00 0.00 0.00 0.00 0.00 0.00 0.00 0.00 0.00 0.00 0.00 0.00 0.00 0.00 0.00 0.01 0.02 0.02 0.02 0.03 0.04 0.04
0.00 0.00 0.00 0.00 0.00 0.00 0.00 0.00 0.00 0.00 0.00 0.00 0.00 0.00 0.00 0.00 0.00 0.00 0.00 0.00 0.00 0.00 0.00 0.00 0.00 0.00 0.00 0.00 0.00 0.00 0.00 0.00 0.00 0.00 0.00 0.00 0.00 0.00 0.01 0.01 0.02 0.03 0.03 0.04
0.00 0.00 0.00 0.00 0.00 0.00 0.00 0.00 0.00 0.00 0.00 0.00 0.00 0.00 0.00 0.00 0.00 0.00 0.00 0.00 0.00 0.00 0.00 0.00 0.00 0.00 0.00 0.00 0.00 0.00 0.00 0.00 0.00 0.00 0.00 0.00 0.00 0.00 0.01 0.01 0.01 0.01 0.02 0.03
0.00 0.00 0.00 0.00 0.00 0.00 0.00 0.00 0.00 0.00 0.00 0.00 0.00 0.00 0.00 0.00 0.00 0.00 0.00 0.00 0.00 0.00 0.00 0.00 0.00 0.00 0.00 0.00 0.00 0.00 0.00 0.00 0.00 0.00 0.00 0.00 0.00 0.00 0.01 0.01 0.01 0.01 0.01 0.01
0.00 0.00 0.00 0.00 0.00 0.00 0.00 0.00 0.00 0.00 0.00 0.00 0.00 0.00 0.00 0.00 0.00 0.00 0.00 0.00 0.00 0.00 0.00 0.00 0.00 0.00 0.00 0.00 0.00 0.00 0.00 0.00 0.00 0.00 0.00 0.00 0.00 0.00 0.00 0.01 0.01 0.01 0.01 0.01
0.00 0.00 0.00 0.00 0.00 0.00 0.00 0.00 0.00 0.00 0.00 0.00 0.00 0.00 0.00 0.00 0.00 0.00 0.00 0.00 0.00 0.00 0.00 0.00 0.00 0.00 0.00 0.00 0.00 0.00 0.00 0.00 0.00 0.00 0.00 0.00 0.00 0.00 0.00 0.00 0.00 0.00 0.00 0.01
0.00 0.00 0.00 0.00 0.00 0.00 0.00 0.00 0.00 0.00 0.00 0.00 0.00 0.00 0.00 0.00 0.00 0.00 0.00 0.00 0.00 0.00 0.00 0.00 0.00 0.00 0.00 0.00 0.00 0.00 0.00 0.00 0.00 0.00 0.00 0.00 0.00 0.00 0.00 0.00 0.00 0.00 0.00 0.00
0.00 0.00 0.00 0.00 0.00 0.00 0.00 0.00 0.00 0.00 0.00 0.00 0.00 0.00 0.00 0.00 0.00 0.00 0.00 0.00 0.00 0.00 0.00 0.00 0.00 0.00 0.00 0.00 0.00 0.00 0.00 0.00 0.00 0.00 0.00 0.00 0.00 0.00 0.00 0.00 0.00 0.00 0.00 0.00
0.00 0.00 0.00 0.00 0.00 0.00 0.00 0.00 0.00 0.00 0.00 0.00 0.00 0.00 0.00 0.00 0.00 0.00 0.00 0.00 0.00 0.00 0.00 0.00 0.00 0.00 0.00 0.00 0.00 0.00 0.00 0.00 0.00 0.00 0.00 0.00 0.00 0.00 0.00 0.00 0.00 0.00 0.00 0.00
0.00 0.00 0.00 0.00 0.00 0.00 0.00 0.00 0.00 0.00 0.00 0.00 0.00 0.00 0.00 0.00 0.00 0.00 0.00 0.00 0.00 0.00 0.00 0.00 0.00 0.00 0.00 0.00 0.00 0.00 0.00 0.00 0.00 0.00 0.00 0.00 0.00 0.00 0.00 0.00 0.00 0.00 0.00 0.00
0.00 0.00 0.00 0.00 0.00 0.00 0.00 0.00 0.00 0.00 0.00 0.00 0.00 0.00 0.00 0.00 0.00 0.00 0.00 0.00 0.00 0.00 0.00 0.00 0.00 0.00 0.00 0.00 0.00 0.00 0.00 0.00 0.00 0.00 0.00 0.00 0.00 0.00 0.00 0.00 0.00 0.00 0.00 0.00
0.00 0.00 0.00 0.00 0.00 0.00 0.00 0.00 0.00 0.00 0.00 0.00 0.00 0.00 0.00 0.00 0.00 0.00 0.00 0.00 0.00 0.00 0.00 0.00 0.00 0.00 0.00 0.00 0.00 0.00 0.00 0.00 0.00 0.00 0.00 0.00 0.00 0.00 0.00 0.00 0.00 0.00 0.00 0.00
0.00 0.00 0.00 0.00 0.00 0.00 0.00 0.00 0.00 0.00 0.00 0.00 0.00 0.00 0.00 0.00 0.00 0.00 0.00 0.00 0.00 0.00 0.00 0.00 0.00 0.00 0.00 0.00 0.00 0.00 0.00 0.00 0.00 0.00 0.00 0.00 0.00 0.00 0.00 0.00 0.00 0.00 0.00 0.00
0.00 0.00 0.00 0.00 0.00 0.00 0.00 0.00 0.00 0.00 0.00 0.00 0.00 0.00 0.00 0.00 0.00 0.00 0.00 0.00 0.00 0.00 0.00 0.00 0.00 0.00 0.00 0.00 0.00 0.00 0.00 0.00 0.00 0.00 0.00 0.00 0.00 0.00 0.00 0.00 0.00 0.00 0.00 0.00
0.00 0.00 0.00 0.00 0.00 0.00 0.00 0.00 0.00 0.00 0.00 0.00 0.00 0.00 0.00 0.00 0.00 0.00 0.00 0.00 0.00 0.00 0.00 0.00 0.00 0.00 0.00 0.00 0.00 0.00 0.00 0.00 0.00 0.00 0.00 0.00 0.00 0.00 0.00 0.00 0.00 0.00 0.00 0.00
0.00 0.00 0.00 0.00 0.00 0.00 0.00 0.00 0.00 0.00 0.00 0.00 0.00 0.00 0.00 0.00 0.00 0.00 0.00 0.00 0.00 0.00 0.00 0.00 0.00 0.00 0.00 0.00 0.00 0.00 0.00 0.00 0.00 0.00 0.00 0.00 0.00 0.00 0.00 0.00 0.00 0.00 0.00 0.00
0.00 0.00 0.00 0.00 0.00 0.00 0.00 0.00 0.00 0.00 0.00 0.00 0.00 0.00 0.00 0.00 0.00 0.00 0.00 0.00 0.00 0.00 0.00 0.00 0.00 0.00 0.00 0.00 0.00 0.00 0.00 0.00 0.00 0.00 0.00 0.00 0.00 0.00 0.00 0.00 0.00 0.00 0.00 0.00
0.00 0.00 0.00 0.00 0.00 0.00 0.00 0.00 0.00 0.00 0.00 0.00 0.00 0.00 0.00 0.00 0.00 0.00 0.00 0.00 0.00 0.00 0.00 0.00 0.00 0.00 0.00 0.00 0.00 0.00 0.00 0.00 0.00 0.00 0.00 0.00 0.00 0.00 0.00 0.00 0.00 0.00 0.00 0.00
0.00 0.00 0.00 0.00 0.00 0.00 0.00 0.00 0.00 0.00 0.00 0.00 0.00 0.00 0.00 0.00 0.00 0.00 0.00 0.00 0.00 0.00 0.00 0.00 0.00 0.00 0.00 0.00 0.00 0.00 0.00 0.00 0.00 0.00 0.00 0.00 0.00 0.00 0.00 0.00 0.00 0.00 0.00 0.00
0.00 0.00 0.00 0.00 0.00 0.00 0.00 0.00 0.00 0.00 0.00 0.00 0.00 0.00 0.00 0.00 0.00 0.00 0.00 0.00 0.00 0.00 0.00 0.00 0.00 0.00 0.00 0.00 0.00 0.00 0.00 0.00 0.00 0.00 0.00 0.00 0.00 0.00 0.00 0.00 0.00 0.00 0.00 0.00
0.00 0.00 0.00 0.00 0.00 0.00 0.00 0.00 0.00 0.00 0.00 0.00 0.00 0.00 0.00 0.00 0.00 0.00 0.00 0.00 0.00 0.00 0.00 0.00 0.00 0.00 0.00 0.00 0.00 0.00 0.00 0.00 0.00 0.00 0.00 0.00 0.00 0.00 0.00 0.00 0.00 0.00 0.00 0.00
0.00 0.00 0.00 0.00 0.00 0.00 0.00 0.00 0.00 0.00 0.00 0.00 0.00 0.00 0.00 0.00 0.00 0.00 0.00 0.00 0.00 0.00 0.00 0.00 0.00 0.00 0.00 0.00 0.00 0.00 0.00 0.00 0.00 0.00 0.00 0.00 0.00 0.00 0.00 0.00 0.00 0.00 0.00 0.00
0.00 0.00 0.00 0.00 0.00 0.00 0.00 0.00 0.00 0.00 0.00 0.00 0.00 0.00 0.00 0.00 0.00 0.00 0.00 0.00 0.00 0.00 0.00 0.00 0.00 0.00 0.00 0.00 0.00 0.00 0.00 0.00 0.00 0.00 0.00 0.00 0.00 0.00 0.00 0.00 0.00 0.00 0.00 0.00
0.00 0.00 0.00 0.00 0.00 0.00 0.00 0.00 0.00 0.00 0.00 0.00 0.00 0.00 0.00 0.00 0.00 0.00 0.00 0.00 0.00 0.00 0.00 0.00 0.00 0.00 0.00 0.00 0.00 0.00 0.00 0.00 0.00 0.00 0.00 0.00 0.00 0.00 0.00 0.00 0.00 0.00 0.00 0.00
0.00 0.00 0.00 0.00 0.00 0.00 0.00 0.00 0.00 0.00 0.00 0.00 0.00 0.00 0.00 0.00 0.00 0.00 0.00 0.00 0.00 0.00 0.00 0.00 0.00 0.00 0.00 0.00 0.00 0.00 0.00 0.00 0.00 0.00 0.00 0.00 0.00 0.00 0.00 0.00 0.00 0.00 0.00 0.00
0.00 0.00 0.00 0.00 0.00 0.00 0.00 0.00 0.00 0.00 0.00 0.00 0.00 0.00 0.00 0.00 0.00 0.00 0.00 0.00 0.00 0.00 0.00 0.00 0.00 0.00 0.00 0.00 0.00 0.00 0.00 0.00 0.00 0.00 0.00 0.00 0.00 0.00 0.00 0.00 0.00 0.00 0.00 0.00
MSLP
1020.41 1020.73 1021.06 1021.39 1021.69 1021.93 1022.09 1022.15 1022.10 1021.94 1021.68 1021.35 1020.98 1020.61 1020.24 1019.91 1019.62 1019.39 1019.20 1019.06 1018.94 1018.84 1018.75 1018.66 1018.56 1018.45 1018.32 1018.16 1017.99 1017.78 1017.55 1017.28 1016.98 1016.64 1016.27 1015.87 1015.44 1014.98 1014.50 1013.99 1013.46 1012.93 1012.39 1011.88
1020.54 1020.77 1020.97 1021.11 1021.21 1021.25 1021.23 1021.16 1021.04 1020.88 1020.69 1020.47 1020.25 1020.02 1019.80 1019.59 1019.39 1019.22 1019.06 1018.92 1018.80 1018.70 1018.63 1018.57 1018.52 1018.47 1018.41 1018.33 1018.21 1018.04 1017.82 1017.56 1017.25 1016.91 1016.54 1016.16 1015.77 1015.38 1014.98 1014.57 1014.16 1013.73 1013.30 1012.88
1020.86 1020.98 1021.00 1020.95 1020.83 1020.66 1020.47 1020.27 1020.07 1019.90 1019.75 1019.63 1019.53 1019.44 1019.34 1019.24 1019.13 1019.00 1018.87 1018.74 1018.62 1018.53 1018.48 1018.46 1018.47 1018.48 1018.49 1018.47 1018.40 1018.27 1018.08 1017.81 1017.50 1017.14 1016.77 1016.40 1016.04 1015.69 1015.37 1015.06 1014.75 1014.44 1014.12 1013.79
1021.29 1021.25 1021.09 1020.83 1020.50 1020.13 1019.77 1019.44 1019.17 1018.98 1018.87 1018.82 1018.83 1018.85 1018.86 1018.86 1018.82 1018.74 1018.63 1018.52 1018.42 1018.35 1018.32 1018.34 1018.40 1018.48 1018.55 1018.59 1018.58 1018.48 1018.30 1018.05 1017.72 1017.36 1016.98 1016.61 1016.27 1015.96 1015.70 1015.47 1015.25 1015.04 1014.82 1014.58
1021.63 1021.42 1021.08 1020.62 1020.10 1019.55 1019.05 1018.62 1018.29 1018.09 1018.01 1018.03 1018.12 1018.24 1018.35 1018.43 1018.45 1018.43 1018.36 1018.28 1018.20 1018.15 1018.16 1018.21 1018.32 1018.45 1018.58 1018.67 1018.70 1018.64 1018.49 1018.25 1017.93 1017.57 1017.20 1016.84 1016.51 1016.25 1016.03 1015.86 1015.71 1015.58 1015.44 1015.27
1021.69 1021.31 1020.79 1020.17 1019.49 1018.82 1018.21 1017.71 1017.37 1017.18 1017.14 1017.22 1017.39 1017.60 1017.80 1017.96 1018.05 1018.09 1018.07 1018.02 1017.97 1017.95 1017.98 1018.07 1018.21 1018.39 1018.56 1018.70 1018.77 1018.75 1018.63 1018.42 1018.13 1017.79 1017.44 1017.10 1016.81 1016.58 1016.40 1016.27 1016.18 1016.10 1016.00 1015.87
1021.32 1020.79 1020.13 1019.38 1018.60 1017.86 1017.21 1016.70 1016.37 1016.22 1016.24 1016.39 1016.65 1016.94 1017.22 1017.46 1017.62 1017.71 1017.74 1017.74 1017.72 1017.73 1017.79 1017.91 1018.07 1018.27 1018.47 1018.64 1018.74 1018.77 1018.70 1018.53 1018.30 1018.01 1017.71 1017.42 1017.17 1016.97 1016.83 1016.74 1016.67 1016.61 1016.53 1016.42
1020.48 1019.83 1019.08 1018.26 1017.44 1016.69 1016.06 1015.59 1015.31 1015.23 1015.33 1015.56 1015.90 1016.27 1016.62 1016.93 1017.17 1017.32 1017.40 1017.44 1017.46 1017.50 1017.57 1017.70 1017.87 1018.08 1018.29 1018.48 1018.62 1018.69 1018.67 1018.57 1018.40 1018.19 1017.96 1017.74 1017.55 1017.40 1017.30 1017.23 1017.18 1017.13 1017.04 1016.92
1019.25 1018.53 1017.73 1016.91 1016.11 1015.41 1014.85 1014.46 1014.27 1014.27 1014.45 1014.77 1015.17 1015.61 1016.03 1016.40 1016.69 1016.90 1017.03 1017.11 1017.16 1017.22 1017.31 1017.44 1017.61 1017.81 1018.02 1018.22 1018.38 1018.48 1018.52 1018.50 1018.42 1018.30 1018.16 1018.02 1017.91 1017.81 1017.75 1017.70 1017.66 1017.60 1017.51 1017.37
1017.83 1017.09 1016.30 1015.51 1014.78 1014.17 1013.70 1013.42 1013.32 1013.41 1013.66 1014.04 1014.49 1014.97 1015.43 1015.84 1016.18 1016.43 1016.61 1016.73 1016.82 1016.89 1016.99 1017.11 1017.27 1017.45 1017.65 1017.84 1018.02 1018.16 1018.25 1018.30 1018.31 1018.28 1018.24 1018.20 1018.16 1018.12 1018.10 1018.08 1018.04 1017.98 1017.88 1017.73
1016.49 1015.76 1015.01 1014.30 1013.66 1013.14 1012.78 1012.58 1012.56 1012.71 1013.00 1013.40 1013.87 1014.36 1014.83 1015.26 1015.62 1015.90 1016.11 1016.27 1016.38 1016.48 1016.59 1016.71 1016.85 1017.02 1017.20 1017.39 1017.57 1017.73 1017.87 1017.98 1018.07 1018.13 1018.18 1018.21 1018.24 1018.26 1018.28 1018.27 1018.25 1018.19 1018.09 1017.94
1015.50 1014.80 1014.11 1013.47 1012.91 1012.48 1012.19 1012.05 1012.07 1012.23 1012.51 1012.88 1013.31 1013.77 1014.21 1014.62 1014.97 1015.27 1015.51 1015.69 1015.84 1015.97 1016.09 1016.22 1016.35 1016.51 1016.68 1016.86 1017.04 1017.22 1017.39 1017.55 1017.69 1017.82 1017.94 1018.04 1018.12 1018.19 1018.23 1018.25 1018.23 1018.18 1018.10 1017.97
1015.01 1014.35 1013.71 1013.12 1012.63 1012.24 1011.98 1011.86 1011.85 1011.97 1012.18 1012.47 1012.81 1013.18 1013.55 1013.90 1014.23 1014.52 1014.77 1014.98 1015.17 1015.33 1015.48 1015.63 1015.78 1015.94 1016.11 1016.29 1016.47 1016.66 1016.85 1017.04 1017.22 1017.40 1017.55 1017.69 1017.81 1017.90 1017.96 1017.99 1017.98 1017.95 1017.89 1017.80
1015.05 1014.42 1013.81 1013.26 1012.79 1012.41 1012.14 1011.96 1011.88 1011.90 1011.99 1012.14 1012.35 1012.59 1012.85 1013.12 1013.39 1013.66 1013.91 1014.14 1014.36 1014.57 1014.76 1014.95 1015.13 1015.31 1015.50 1015.69 1015.88 1016.08 1016.29 1016.49 1016.70 1016.89 1017.07 1017.22 1017.35 1017.44 1017.51 1017.54 1017.54 1017.53 1017.49 1017.45
1015.52 1014.91 1014.33 1013.78 1013.30 1012.90 1012.56 1012.30 1012.11 1011.98 1011.91 1011.90 1011.94 1012.02 1012.15 1012.31 1012.50 1012.71 1012.95 1013.19 1013.44 1013.69 1013.94 1014.17 1014.40 1014.62 1014.84 1015.05 1015.27 1015.49 1015.71 1015.93 1016.14 1016.34 1016.53 1016.68 1016.80 1016.89 1016.94 1016.97 1016.97 1016.97 1016.96 1016.95
1016.26 1015.66 1015.08 1014.53 1014.03 1013.57 1013.16 1012.79 1012.47 1012.19 1011.95 1011.75 1011.61 1011.52 1011.49 1011.52 1011.61 1011.76 1011.95 1012.19 1012.45 1012.73 1013.02 1013.30 1013.58 1013.85 1014.11 1014.37 1014.62 1014.87 1015.12 1015.36 1015.58 1015.79 1015.97 1016.12 1016.23 1016.30 1016.34 1016.35 1016.35 1016.34 1016.35 1016.38
1017.04 1016.47 1015.90 1015.34 1014.81 1014.31 1013.83 1013.36 1012.92 1012.49 1012.09 1011.72 1011.41 1011.15 1010.96 1010.84 1010.82 1010.87 1011.00 1011.19 1011.44 1011.72 1012.03 1012.35 1012.67 1012.99 1013.30 1013.61 1013.91 1014.20 1014.49 1014.76 1015.01 1015.24 1015.43 1015.58 1015.68 1015.74 1015.76 1015.76 1015.74 1015.73 1015.73 1015.77
1017.71 1017.16 1016.62 1016.08 1015.54 1015.02 1014.49 1013.96 1013.43 1012.89 1012.36 1011.86 1011.38 1010.97 1010.62 1010.37 1010.21 1010.14 1010.17 1010.29 1010.48 1010.74 1011.03 1011.35 1011.70 1012.05 1012.40 1012.76 1013.12 1013.46 1013.80 1014.12 1014.41 1014.67 1014.88 1015.04 1015.15 1015.21 1015.23 1015.21 1015.18 1015.15 1015.15 1015.17
1018.16 1017.67 1017.17 1016.67 1016.17 1015.65 1015.12 1014.57 1014.00 1013.40 1012.79 1012.18 1011.60 1011.05 1010.57 1010.17 1009.87 1009.66 1009.57 1009.57 1009.66 1009.84 1010.07 1010.36 1010.69 1011.05 1011.43 1011.83 1012.23 1012.63 1013.02 1013.39 1013.74 1014.04 1014.30 1014.49 1014.62 1014.69 1014.71 1014.69 1014.66 1014.61 1014.58 1014.59
1018.41 1017.99 1017.56 1017.12 1016.68 1016.22 1015.73 1015.20 1014.64 1014.03 1013.39 1012.73 1012.07 1011.42 1010.82 1010.29 1009.84 1009.49 1009.24 1009.09 1009.05 1009.10 1009.24 1009.45 1009.73 1010.06 1010.43 1010.83 1011.27 1011.71 1012.15 1012.58 1012.98 1013.33 1013.63 1013.87 1014.03 1014.13 1014.17 1014.16 1014.12 1014.07 1014.02 1014.00
1018.52 1018.17 1017.83 1017.47 1017.11 1016.73 1016.31 1015.85 1015.33 1014.75 1014.13 1013.45 1012.75 1012.05 1011.36 1010.71 1010.13 1009.62 1009.21 1008.90 1008.70 1008.60 1008.60 1008.70 1008.88 1009.15 1009.48 1009.86 1010.30 1010.75 1011.23 1011.69 1012.13 1012.53 1012.87 1013.15 1013.35 1013.48 1013.54 1013.54 1013.51 1013.46 1013.40 1013.36
1018.57 1018.30 1018.04 1017.77 1017.50 1017.20 1016.87 1016.49 1016.05 1015.53 1014.95 1014.30 1013.60 1012.87 1012.13 1011.39 1010.70 1010.06 1009.50 1009.02 1008.65 1008.39 1008.24 1008.20 1008.26 1008.42 1008.67 1009.01 1009.40 1009.85 1010.31 1010.78 1011.24 1011.66 1012.03 1012.33 1012.55 1012.71 1012.79 1012.82 1012.80 1012.76 1012.70 1012.65
1018.64 1018.43 1018.24 1018.05 1017.85 1017.64 1017.39 1017.10 1016.74 1016.30 1015.79 1015.19 1014.52 1013.80 1013.03 1012.26 1011.49 1010.74 1010.06 1009.44 1008.92 1008.51 1008.20 1008.01 1007.94 1007.98 1008.13 1008.37 1008.70 1009.08 1009.51 1009.94 1010.38 1010.78 1011.14 1011.44 1011.67 1011.84 1011.94 1011.98 1011.98 1011.95 1011.91 1011.86
1018.74 1018.58 1018.43 1018.30 1018.16 1018.01 1017.83 1017.62 1017.33 1016.98 1016.54 1016.02 1015.41 1014.73 1013.99 1013.20 1012.40 1011.61 1010.84 1010.13 1009.49 1008.95 1008.51 1008.18 1007.98 1007.89 1007.92 1008.05 1008.27 1008.56 1008.90 1009.27 1009.63 1009.98 1010.30 1010.56 1010.78 1010.93 1011.02 1011.07 1011.09 1011.07 1011.05 1011.02
1018.85 1018.72 1018.59 1018.48 1018.38 1018.27 1018.14 1017.98 1017.77 1017.49 1017.14 1016.70 1016.17 1015.56 1014.88 1014.14 1013.36 1012.57 1011.78 1011.02 1010.31 1009.68 1009.14 1008.71 1008.38 1008.18 1008.08 1008.09 1008.19 1008.36 1008.59 1008.84 1009.11 1009.37 1009.60 1009.80 1009.95 1010.07 1010.14 1010.18 1010.20 1010.20 1010.19 1010.19
1018.91 1018.78 1018.67 1018.56 1018.46 1018.37 1018.27 1018.15 1017.99 1017.78 1017.51 1017.17 1016.74 1016.23 1015.64 1014.98 1014.27 1013.53 1012.77 1012.01 1011.29 1010.63 1010.03 1009.53 1009.12 1008.81 1008.60 1008.49 1008.46 1008.50 1008.59 1008.72 1008.86 1009.00 1009.12 1009.23 1009.31 1009.36 1009.39 1009.41 1009.42 1009.42 1009.43 1009.45
1018.86 1018.73 1018.60 1018.48 1018.37 1018.28 1018.19 1018.10 1017.98 1017.84 1017.65 1017.39 1017.07 1016.67 1016.20 1015.65 1015.05 1014.39 1013.70 1013.01 1012.32 1011.67 1011.06 1010.52 1010.06 1009.68 1009.39 1009.17 1009.03 1008.94 1008.90 1008.89 1008.90 1008.91 1008.92 1008.92 1008.91 1008.89 1008.86 1008.84 1008.83 1008.83 1008.85 1008.88
Thickness
5721 5728 5725 5721 5718 5714 5705 5696 5686 5693 5695 5699 5699 5698 5696 5694 5691 5688 5685 5682 5679 5674 5670 5667 5664 5660 5656 5653 5649 5646 5643 5640 5637 5636 5635 5634 5633 5633 5633 5634 5634 5635 5636 5639
5724 5729 5728 5723 5722 5717 5714 5712 5706 5705 5704 5715 5712 5705 5701 5698 5695 5691 5688 5686 5683 5680 5675 5671 5667 5663 5659 5655 5652 5648 5645 5642 5639 5637 5636 5634 5633 5632 5632 5632 5632 5632 5632 5634
5707 5722 5723 5712 5724 5721 5721 5724 5717 5707 5712 5717 5711 5708 5706 5703 5700 5696 5693 5690 5687 5683 5679 5675 5672 5667 5662 5658 5655 5650 5647 5644 5641 5639 5636 5635 5634 5632 5631 5630 5629 5629 5629 5630
5705 5713 5704 5724 5745 5741 5733 5733 5732 5730 5727 5724 5722 5720 5717 5713 5707 5702 5699 5695 5692 5687 5684 5681 5677 5672 5667 5662 5657 5653 5649 5646 5643 5640 5638 5636 5634 5632 5631 5629 5628 5627 5627 5627
5698 5702 5710 5733 5747 5745 5734 5732 5740 5735 5733 5730 5728 5721 5717 5719 5716 5710 5705 5701 5697 5694 5690 5685 5680 5675 5669 5664 5659 5655 5652 5649 5646 5643 5640 5638 5635 5633 5631 5630 5628 5627 5626 5625
5700 5705 5705 5729 5752 5756 5742 5728 5746 5743 5737 5731 5723 5706 5712 5723 5721 5716 5712 5707 5703 5699 5694 5689 5684 5679 5672 5666 5662 5659 5656 5653 5650 5647 5643 5640 5637 5635 5633 5631 5629 5627 5625 5623
5700 5700 5710 5740 5754 5750 5721 5727 5752 5749 5744 5737 5728 5728 5731 5730 5725 5721 5716 5711 5708 5702 5697 5692 5688 5682 5675 5670 5666 5664 5661 5657 5654 5650 5647 5644 5640 5637 5634 5632 5629 5627 5624 5622
5695 5696 5710 5751 5749 5737 5739 5754 5758 5754 5750 5744 5740 5739 5734 5731 5726 5722 5717 5714 5710 5704 5699 5696 5691 5685 5679 5674 5673 5669 5665 5661 5657 5653 5651 5648 5643 5639 5636 5633 5630 5627 5624 5622
5715 5723 5747 5754 5755 5761 5760 5757 5760 5756 5754 5750 5743 5739 5736 5732 5728 5724 5720 5716 5712 5706 5701 5698 5694 5690 5683 5681 5677 5673 5668 5664 5660 5656 5653 5649 5646 5642 5638 5634 5631 5627 5624 5622
5729 5740 5752 5756 5759 5763 5763 5762 5764 5762 5758 5752 5746 5742 5737 5733 5729 5725 5722 5718 5713 5708 5703 5699 5697 5693 5690 5687 5682 5676 5671 5666 5663 5658 5655 5651 5648 5644 5640 5636 5633 5630 5627 5623
5732 5741 5749 5756 5758 5761 5763 5764 5764 5762 5759 5755 5750 5744 5740 5735 5731 5727 5724 5720 5716 5710 5706 5703 5700 5696 5694 5690 5685 5679 5674 5670 5666 5662 5658 5654 5650 5646 5644 5640 5637 5633 5630 5627
5724 5738 5738 5747 5759 5762 5759 5759 5759 5758 5755 5754 5751 5747 5742 5738 5735 5730 5726 5722 5717 5713 5709 5707 5703 5700 5697 5693 5688 5682 5677 5673 5669 5665 5660 5656 5652 5649 5647 5644 5642 5639 5636 5632
5729 5739 5743 5750 5756 5757 5756 5756 5757 5755 5753 5750 5749 5747 5743 5739 5735 5732 5728 5724 5720 5717 5714 5710 5706 5702 5700 5696 5692 5686 5681 5677 5672 5668 5664 5659 5655 5652 5648 5647 5645 5642 5639 5637
5726 5733 5735 5737 5739 5746 5749 5751 5752 5751 5750 5749 5747 5744 5741 5738 5735 5732 5729 5728 5725 5720 5716 5712 5708 5705 5704 5699 5694 5689 5685 5681 5676 5671 5668 5664 5660 5656 5653 5649 5646 5644 5643 5641
5713 5717 5718 5724 5729 5734 5737 5739 5739 5738 5739 5740 5741 5739 5737 5735 5733 5733 5732 5730 5725 5720 5717 5713 5709 5707 5706 5701 5696 5691 5687 5682 5679 5675 5671 5667 5664 5660 5657 5654 5650 5648 5645 5643
5699 5705 5708 5711 5713 5716 5720 5722 5723 5725 5728 5730 5732 5733 5734 5735 5734 5733 5731 5728 5722 5718 5717 5714 5711 5710 5707 5702 5697 5692 5688 5686 5681 5676 5673 5669 5666 5663 5660 5657 5654 5651 5648 5647
5684 5686 5688 5691 5695 5699 5702 5705 5708 5712 5716 5719 5723 5727 5729 5728 5727 5727 5726 5725 5724 5723 5720 5716 5714 5712 5707 5703 5698 5693 5689 5685 5683 5678 5674 5671 5668 5665 5663 5660 5657 5655 5653 5652
5668 5669 5671 5674 5677 5682 5686 5691 5695 5699 5703 5709 5714 5717 5719 5719 5720 5721 5722 5721 5719 5718 5718 5716 5714 5711 5707 5702 5698 5693 5689 5685 5681 5678 5675 5672 5669 5667 5665 5662 5660 5658 5656 5655
5653 5656 5658 5661 5664 5666 5670 5674 5679 5684 5690 5695 5700 5703 5707 5711 5714 5716 5716 5714 5712 5711 5712 5712 5711 5708 5704 5701 5697 5692 5688 5684 5680 5677 5675 5673 5670 5668 5666 5663 5662 5660 5658 5656
5636 5639 5641 5644 5647 5649 5653 5657 5662 5667 5672 5677 5682 5687 5691 5696 5700 5704 5705 5706 5709 5711 5711 5709 5707 5704 5702 5698 5694 5690 5686 5683 5679 5676 5673 5671 5669 5667 5666 5664 5663 5661 5660 5658
5617 5620 5623 5625 5627 5630 5633 5637 5642 5647 5652 5657 5660 5665 5671 5678 5684 5688 5690 5694 5702 5703 5703 5702 5701 5700 5697 5695 5691 5687 5683 5680 5677 5674 5672 5669 5667 5666 5665 5664 5663 5662 5661 5659
5599 5601 5603 5606 5608 5610 5613 5616 5620 5625 5630 5635 5639 5644 5650 5656 5663 5669 5675 5680 5687 5690 5691 5692 5693 5693 5692 5689 5686 5682 5680 5677 5675 5672 5669 5667 5665 5664 5663 5662 5661 5661 5660 5659
5579 5582 5584 5586 5588 5590 5594 5596 5599 5602 5605 5610 5614 5619 5624 5629 5636 5642 5651 5660 5666 5673 5678 5681 5684 5685 5684 5682 5679 5677 5674 5672 5670 5668 5666 5665 5663 5662 5661 5660 5659 5659 5658 5657
5564 5564 5566 5568 5570 5572 5573 5576 5578 5580 5582 5586 5589 5593 5599 5606 5613 5619 5626 5636 5645 5655 5661 5666 5670 5672 5672 5671 5670 5668 5667 5666 5664 5663 5661 5660 5659 5658 5657 5656 5656 5655 5655 5655
5548 5548 5548 5549 5549 5550 5552 5554 5557 5559 5560 5563 5566 5570 5574 5579 5584 5593 5602 5611 5621 5630 5638 5646 5651 5655 5656 5657 5657 5657 5657 5657 5656 5655 5654 5653 5652 5652 5652 5651 5651 5651 5651 5650
5532 5531 5531 5530 5530 5530 5531 5532 5533 5535 5537 5540 5543 5546 5550 5554 5560 5567 5575 5583 5592 5601 5609 5617 5624 5630 5634 5637 5640 5642 5643 5643 5644 5644 5644 5645 5645 5644 5645 5645 5645 5645 5645 5645
5516 5515 5514 5513 5513 5513 5512 5512 5512 5513 5514 5515 5518 5522 5525 5529 5534 5539 5546 5554 5561 5569 5578 5586 5593 5600 5606 5612 5616 5620 5623 5626 5628 5630 5631 5633 5634 5635 5636 5637 5637 5638 5638 5638